Regional Weather Roundup
Issued by NWS

Home | Current Version | Previous Version | Text Only | Print | Product List | Glossary On
Versions: 1 2 3 4 5 6 7 8 9 10 11 12 13 14 15 16 17 18 19 20 21 22 23 24 25 26 27 28 29 30 31 32 33 34 35 36 37 38 39 40 41 42 43 44 45 46 47 48 49 50
000
ASUS43 KDTX 131010
RWRMI
MICHIGAN HOURLY REGIONAL WEATHER ROUNDUP
NATIONAL WEATHER SERVICE DETROIT/PONTIAC MI
600 AM EDT SUN JUL 13 2014

NOTE: "FAIR" INDICATES FEW OR NO CLOUDS BELOW 12,000 FEET WITH NO
SIGNIFICANT WEATHER AND/OR OBSTRUCTION TO VISIBILITY.

MIZ047>049-052>055-059>063-066>070-074>076-081>083-131100-
SOUTHEAST LOWER MICHIGAN

CITY           SKY/WX    TMP DP  RH WIND       PRES   REMARKS
ADRIAN         CLOUDY    73  71  93 SW5       29.83F FOG
ALMA           CLOUDY    70  68  93 W7        29.80R
ANN ARBOR      CLOUDY    73  69  87 SW9       29.83S FOG
BAD AXE        HVY RAIN  70  69  96 NW13      29.70F
DETROIT CITY   LGT RAIN  76  70  82 SW13      29.81S
DETROIT        CLOUDY    73  71  93 SW16      29.83F
FLINT          LGT RAIN  73  68  84 W15G23    29.78F
GROSSE ILE     LGT RAIN  75  72  88 SW12      29.82S
HILLSDALE      RAIN      72  72  99 W6        29.86S
HOWELL         LGT RAIN  70  68  94 SW9       29.82R

CITY           SKY/WX    TMP DP  RH WIND       PRES   REMARKS
JACKSON        CLOUDY    71  68  90 W6        29.83F
LAMBERTVILLE   CLOUDY    77  70  78 SW10      29.85S
LANSING        LGT RAIN  70  67  90 SW10      29.82S
LAPEER         NOT AVBL
MASON          DRIZZLE   70  68  93 W3        29.84R
MONROE         CLOUDY    75  72  88 SW12      29.82S
MT. CLEMENS    CLOUDY    74  72  91 SW10      29.78F
PONTIAC        CLOUDY    73  69  87 SW12      29.80F
PORT HOPE        N/A     71  68  90 VRB6      29.68F
PORT HURON     LGT RAIN  72  70  94 SW9       29.77F
TRI CITIES     CLOUDY    72  69  90 W12       29.77R
YPSILANTI      CLOUDY    76  70  82 SW12      29.83F HAZE
$$
MIZ043>046-050>051-056>058-064>065-071>073-077>080-131100-
SOUTHWEST LOWER MICHIGAN

CITY           SKY/WX    TMP DP  RH WIND       PRES   REMARKS
BATTLE CREEK   LGT RAIN  71  68  90 W6        29.84R
BENTON HARBOR  CLOUDY    69  68  96 W12       29.87R
BIG RAPIDS     PTCLDY    66  66 100 NW6       29.81S
COLDWATER      HVY RAIN  70  69  95 SW3       29.83F
HOLLAND        MOCLDY    68  66  93 W8        29.85R
GRAND RAPIDS   CLOUDY    71  70  96 W8        29.83R
KALAMAZOO      LGT RAIN  70  68  93 W3        29.84R FOG
MARSHALL       CLOUDY    69  68  97 SW3       29.84S
MUSKEGON       PTCLDY    65  62  90 NW7       29.85R
$$
MIZ016>042-131100-
NORTHERN LOWER MICHIGAN

CITY           SKY/WX    TMP DP  RH WIND       PRES   REMARKS
ALPENA         CLOUDY    67  66  97 VRB6      29.71S
BEAVER ISLAND  CLEAR     59  59 100 SW12      29.75S
BELLAIRE       CLEAR     63  61  94 CALM      29.76S
CADILLAC       CLEAR     61  61 100 W6        29.81S
CHARLEVOIX     CLEAR     62  61  97 SW10      29.78F
FRANKFORT      MOSUNNY   60  58  92 NW3       29.81S FOG
GAYLORD        PTCLDY    62  61  96 W9        29.77S FOG
GRAYLING       CLEAR     63  63 100 W5        29.79R FOG
HARBOR SPRINGS CLEAR     61  60  97 W7        29.74S FOG
HOUGHTON LAKE  PTCLDY    65  63  93 W8        29.79R
MANISTEE       CLEAR     61  57  88 W3        29.82S
OSCODA         CLOUDY    69  67  92 NW8       29.70F
PELLSTON       CLEAR     62  59  90 W7        29.74R
TRAVERSE CITY  PTCLDY    64  61  90 CALM      29.77S
$$
MIZ007>008-015-131100-
EASTERN UPPER MICHIGAN

CITY           SKY/WX    TMP DP  RH WIND       PRES   REMARKS
KINROSS        CLOUDY    63  61  94 W8        29.71S
MACKINAC ISLAN CLOUDY    59  59 100 W7        29.72F FOG
NEWBERRY       FOG       55  55  99 W7        29.73F VSB 1
S. S. MARIE    CLOUDY    63  61  93 NW10      29.70S FOG
$$
MIZ004>006-011>014-085-131100-
CENTRAL UPPER MICHIGAN

CITY           SKY/WX    TMP DP  RH WIND       PRES   REMARKS
MANISTIQUE     FOG       50  50 100 CALM      29.73F VSB<1/4
ESCANABA         N/A     57  55  94 SW5       29.76R VSB 3/4
MENOMINEE      CLEAR     61  57  88 W5        29.78S
SAWYER-GWINN   CLEAR     59  58  96 SW6       29.76R
$$
MIZ001>003-009>011-084-131100-
WESTERN UPPER MICHIGAN

CITY           SKY/WX    TMP DP  RH WIND       PRES   REMARKS
IRON MOUNTAIN  CLEAR     62  59  90 W8        29.78R
HOUGHTON       PTCLDY    54  50  86 W12       29.75S
COPPER HARBOR    N/A     57  52  83 N13G23    29.72S
IRONWOOD       PTCLDY    57  48  72 W10G16    29.82R
$$

ABBREVIATIONS USED IN REMARKS
   TC - TEMPERATURE IN CELSIUS
  WCI - WIND CHILL INDEX
   HX - HEAT INDEX
  VSB - VISIBILITY




USA.gov is the U.S. government's official web portal to all federal, state and local government web resources and services.